| time (UTC) | temp C | wind direction | speed KPH | gust KPH | rain 1hr cm | rain 24hr cm | rain mn cm | humidity % | barometer mb |
| 20260510184029 | 12 | 21 | 41.8 | 48.3 | 0.00 | 0.00 | 0.00 | 72 | 1010.9 |
| 20260510183530 | 12 | 21 | 30.6 | 40.2 | 0.00 | 0.00 | 0.00 | 72 | 1010.7 |
| 20260510183030 | 12 | 25 | 29.0 | 41.8 | 0.00 | 0.00 | 0.00 | 72 | 1010.8 |
| 20260510182529 | 12 | 23 | 24.1 | 43.5 | 0.00 | 0.00 | 0.00 | 70 | 1010.6 |
| 20260510182030 | 13 | 16 | 32.2 | 48.3 | 0.00 | 0.00 | 0.00 | 70 | 1010.7 |
| 20260510181528 | 13 | 23 | 32.2 | 48.3 | 0.00 | 0.00 | 0.00 | 70 | 1010.8 |
| 20260510181027 | 13 | 11 | 41.8 | 45.1 | 0.00 | 0.00 | 0.00 | 70 | 1010.8 |
| 20260510180528 | 13 | 8 | 32.2 | 45.1 | 0.00 | 0.00 | 0.00 | 70 | 1010.8 |
| 20260510180027 | 13 | 20 | 29.0 | 41.8 | 0.00 | 0.00 | 0.00 | 69 | 1010.7 |
| 20260510175524 | 13 | 26 | 27.4 | 45.1 | 0.00 | 0.00 | 0.00 | 69 | 1010.7 |
| 20260510175024 | 13 | 5 | 32.2 | 45.1 | 0.00 | 0.00 | 0.00 | 68 | 1010.7 |
| 20260510174523 | 14 | 27 | 24.1 | 40.2 | 0.00 | 0.00 | 0.00 | 68 | 1010.8 |
| 20260510174022 | 14 | 0 | 27.4 | 41.8 | 0.00 | 0.00 | 0.00 | 69 | 1010.9 |
| 20260510173523 | 14 | 2 | 25.7 | 41.8 | 0.00 | 0.00 | 0.00 | 68 | 1010.6 |
| 20260510173021 | 14 | 2 | 27.4 | 41.8 | 0.00 | 0.00 | 0.00 | 68 | 1010.7 |
| 20260510172521 | 14 | 3 | 25.7 | 40.2 | 0.00 | 0.00 | 0.00 | 67 | 1010.6 |
| 20260510172021 | 14 | 15 | 22.5 | 46.7 | 0.00 | 0.00 | 0.00 | 67 | 1010.8 |
| 20260510171757 | 15 | 3 | 27.4 | 46.7 | 0.00 | 0.00 | 0.00 | 67 | 1010.7 |
| 20260510171255 | 15 | 14 | 27.4 | 43.5 | 0.00 | 0.00 | 0.00 | 66 | 1010.9 |
| 20260510170519 | 15 | 16 | 30.6 | 41.8 | 0.00 | 0.00 | 0.00 | 66 | 1010.7 |
| 20260510170019 | 15 | 7 | 25.7 | 37.0 | 0.00 | 0.00 | 0.00 | 66 | 1010.8 |
| 20260510165519 | 15 | 14 | 29.0 | 43.5 | 0.00 | 0.00 | 0.00 | 65 | 1010.9 |
| 20260510165017 | 15 | 14 | 32.2 | 43.5 | 0.00 | 0.00 | 0.00 | 64 | 1011.0 |
| 20260510164517 | 15 | 12 | 35.4 | 41.8 | 0.00 | 0.00 | 0.00 | 64 | 1011.0 |
| 20260510164016 | 15 | 11 | 27.4 | 43.5 | 0.00 | 0.00 | 0.00 | 64 | 1010.8 |
| 20260510163517 | 16 | 20 | 35.4 | 43.5 | 0.00 | 0.00 | 0.00 | 63 | 1010.8 |
| 20260510163015 | 16 | 353 | 35.4 | 48.3 | 0.00 | 0.00 | 0.00 | 61 | 1011.0 |
| 20260510162515 | 16 | 0 | 30.6 | 48.3 | 0.00 | 0.00 | 0.00 | 61 | 1011.1 |
| 20260510162015 | 16 | 24 | 17.7 | 38.6 | 0.00 | 0.00 | 0.00 | 61 | 1011.1 |
| 20260510161514 | 16 | 0 | 22.5 | 41.8 | 0.00 | 0.00 | 0.00 | 62 | 1011.1 |
| 20260510161013 | 16 | 0 | 37.0 | 41.8 | 0.00 | 0.00 | 0.00 | 61 | 1010.9 |
| 20260510160512 | 16 | 0 | 27.4 | 43.5 | 0.00 | 0.00 | 0.00 | 60 | 1011.0 |
| 20260510160245 | 16 | 12 | 32.2 | 45.1 | 0.00 | 0.00 | 0.00 | 61 | 1011.3 |
| 20260510155509 | 16 | 3 | 30.6 | 45.1 | 0.00 | 0.00 | 0.00 | 60 | 1011.1 |
| 20260510155242 | 16 | 20 | 33.8 | 43.5 | 0.00 | 0.00 | 0.00 | 59 | 1011.4 |
| 20260510154511 | 16 | 2 | 27.4 | 43.5 | 0.00 | 0.00 | 0.00 | 59 | 1011.5 |
| 20260510154008 | 16 | 0 | 17.7 | 38.6 | 0.00 | 0.00 | 0.00 | 59 | 1011.4 |
| 20260510153509 | 17 | 350 | 25.7 | 38.6 | 0.00 | 0.00 | 0.00 | 58 | 1011.4 |
| 20260510153008 | 17 | 353 | 27.4 | 41.8 | 0.00 | 0.00 | 0.00 | 58 | 1011.4 |
| 20260510152507 | 17 | 21 | 38.6 | 41.8 | 0.00 | 0.00 | 0.00 | 58 | 1011.6 |
| 20260510152006 | 17 | 5 | 25.7 | 40.2 | 0.00 | 0.00 | 0.00 | 57 | 1011.6 |
| 20260510151505 | 17 | 29 | 27.4 | 40.2 | 0.00 | 0.00 | 0.00 | 57 | 1011.7 |
| 20260510151007 | 17 | 6 | 19.3 | 40.2 | 0.00 | 0.00 | 0.00 | 56 | 1011.7 |
| 20260510150506 | 17 | 1 | 29.0 | 38.6 | 0.00 | 0.00 | 0.00 | 56 | 1012.0 |
| 20260510150004 | 17 | 29 | 25.7 | 38.6 | 0.00 | 0.00 | 0.00 | 56 | 1011.8 |
| 20260510145505 | 17 | 359 | 25.7 | 38.6 | 0.00 | 0.00 | 0.00 | 56 | 1012.0 |
| 20260510145005 | 17 | 23 | 22.5 | 37.0 | 0.00 | 0.00 | 0.00 | 55 | 1012.1 |
| 20260510144505 | 18 | 13 | 22.5 | 37.0 | 0.00 | 0.00 | 0.00 | 54 | 1012.1 |
| 20260510144002 | 18 | 18 | 29.0 | 37.0 | 0.00 | 0.00 | 0.00 | 53 | 1012.2 |
| 20260510143504 | 18 | 18 | 27.4 | 37.0 | 0.00 | 0.00 | 0.00 | 51 | 1012.2 |
| 20260510143002 | 18 | 345 | 27.4 | 37.0 | 0.00 | 0.00 | 0.00 | 51 | 1012.2 |
| 20260510142503 | 18 | 7 | 20.9 | 45.1 | 0.00 | 0.00 | 0.00 | 51 | 1012.3 |
| 20260510142001 | 18 | 1 | 25.7 | 45.1 | 0.00 | 0.00 | 0.00 | 49 | 1012.3 |
| 20260510141500 | 18 | 23 | 25.7 | 43.5 | 0.00 | 0.00 | 0.00 | 49 | 1012.4 |
| 20260510140959 | 18 | 6 | 32.2 | 43.5 | 0.00 | 0.00 | 0.00 | 50 | 1012.4 |
| 20260510140730 | 18 | 14 | 22.5 | 38.6 | 0.00 | 0.00 | 0.00 | 51 | 1012.3 |
| 20260510135958 | 18 | 6 | 37.0 | 37.0 | 0.00 | 0.00 | 0.00 | 50 | 1012.1 |
| 20260510135458 | 18 | 7 | 22.5 | 40.2 | 0.00 | 0.00 | 0.00 | 51 | 1012.1 |
| 20260510135451 | 18 | 14 | 19.3 | 40.2 | 0.00 | 0.00 | 0.00 | 49 | 1012.3 |
| 20260510134459 | 19 | 13 | 30.6 | 41.8 | 0.00 | 0.00 | 0.00 | 48 | 1012.3 |
| 20260510133956 | 19 | 5 | 25.7 | 41.8 | 0.00 | 0.00 | 0.00 | 49 | 1012.4 |
| 20260510133456 | 19 | 355 | 24.1 | 40.2 | 0.00 | 0.00 | 0.00 | 49 | 1012.5 |
| 20260510132955 | 19 | 29 | 27.4 | 40.2 | 0.00 | 0.00 | 0.00 | 48 | 1012.7 |
| 20260510132455 | 19 | 12 | 29.0 | 37.0 | 0.00 | 0.00 | 0.00 | 48 | 1012.7 |
| 20260510131955 | 19 | 15 | 30.6 | 38.6 | 0.00 | 0.00 | 0.00 | 47 | 1013.0 |
| 20260510131453 | 19 | 23 | 20.9 | 38.6 | 0.00 | 0.00 | 0.00 | 50 | 1012.9 |
| 20260510130955 | 20 | 9 | 29.0 | 35.4 | 0.00 | 0.00 | 0.00 | 48 | 1012.8 |
| 20260510130453 | 20 | 5 | 27.4 | 37.0 | 0.00 | 0.00 | 0.00 | 49 | 1013.1 |
| 20260510125952 | 20 | 5 | 25.7 | 37.0 | 0.00 | 0.00 | 0.00 | 49 | 1013.0 |
| 20260510125451 | 19 | 13 | 17.7 | 41.8 | 0.00 | 0.00 | 0.00 | 49 | 1013.2 |
| 20260510124951 | 20 | 8 | 24.1 | 41.8 | 0.00 | 0.00 | 0.00 | 49 | 1013.2 |
| 20260510124450 | 20 | 12 | 27.4 | 38.6 | 0.00 | 0.00 | 0.00 | 50 | 1013.2 |
| 20260510123952 | 20 | 2 | 20.9 | 37.0 | 0.00 | 0.00 | 0.00 | 48 | 1013.3 |
| 20260510123449 | 20 | 359 | 22.5 | 45.1 | 0.00 | 0.00 | 0.00 | 51 | 1013.3 |
| 20260510122949 | 19 | 19 | 24.1 | 48.3 | 0.00 | 0.00 | 0.00 | 50 | 1013.3 |
| 20260510122448 | 20 | 34 | 27.4 | 48.3 | 0.00 | 0.00 | 0.00 | 50 | 1013.4 |
| 20260510121947 | 19 | 357 | 29.0 | 41.8 | 0.00 | 0.00 | 0.00 | 50 | 1013.6 |
| 20260510121448 | 19 | 10 | 30.6 | 41.8 | 0.00 | 0.00 | 0.00 | 50 | 1013.5 |
| 20260510120948 | 20 | 31 | 25.7 | 40.2 | 0.00 | 0.00 | 0.00 | 50 | 1013.6 |
| 20260510120445 | 20 | 20 | 33.8 | 40.2 | 0.00 | 0.00 | 0.00 | 51 | 1013.4 |
| 20260510115946 | 20 | 4 | 27.4 | 40.2 | 0.00 | 0.00 | 0.00 | 48 | 1013.7 |
| 20260510115721 | 21 | 5 | 25.7 | 35.4 | 0.00 | 0.00 | 0.00 | 48 | 1013.5 |
| 20260510114945 | 20 | 17 | 29.0 | 33.8 | 0.00 | 0.00 | 0.00 | 48 | 1013.7 |
| 20260510114445 | 20 | 1 | 19.3 | 37.0 | 0.00 | 0.00 | 0.00 | 51 | 1013.7 |
| 20260510113943 | 19 | 10 | 22.5 | 40.2 | 0.00 | 0.00 | 0.00 | 52 | 1013.6 |
| 20260510113443 | 20 | 1 | 22.5 | 40.2 | 0.00 | 0.00 | 0.00 | 50 | 1013.8 |
| 20260510112944 | 20 | 7 | 32.2 | 40.2 | 0.00 | 0.00 | 0.00 | 49 | 1013.9 |
| 20260510112442 | 20 | 13 | 20.9 | 41.8 | 0.00 | 0.00 | 0.00 | 49 | 1013.8 |
| 20260510111941 | 19 | 3 | 22.5 | 41.8 | 0.00 | 0.00 | 0.00 | 52 | 1013.8 |
| 20260510111441 | 19 | 357 | 25.7 | 43.5 | 0.00 | 0.00 | 0.00 | 50 | 1013.9 |
| 20260510110939 | 19 | 17 | 27.4 | 43.5 | 0.00 | 0.00 | 0.00 | 51 | 1014.2 |
| 20260510110706 | 19 | 358 | 25.7 | 38.6 | 0.00 | 0.00 | 0.00 | 52 | 1014.0 |
| 20260510105937 | 19 | 15 | 27.4 | 38.6 | 0.00 | 0.00 | 0.00 | 50 | 1014.1 |
| 20260510105439 | 19 | 9 | 30.6 | 35.4 | 0.00 | 0.00 | 0.00 | 50 | 1014.1 |
| 20260510105156 | 18 | 10 | 25.7 | 40.2 | 0.00 | 0.00 | 0.00 | 50 | 1014.3 |
| 20260510104655 | 18 | 2 | 25.7 | 40.2 | 0.00 | 0.00 | 0.00 | 52 | 1014.3 |
| 20260510103930 | 18 | 12 | 27.4 | 43.5 | 0.00 | 0.00 | 0.00 | 51 | 1014.3 |
| 20260510103659 | 18 | 23 | 30.6 | 43.5 | 0.00 | 0.00 | 0.00 | 53 | 1014.4 |
| 20260510102930 | 18 | 14 | 24.1 | 41.8 | 0.00 | 0.00 | 0.00 | 53 | 1014.4 |
| 20260510102701 | 18 | 7 | 29.0 | 41.8 | 0.00 | 0.00 | 0.00 | 52 | 1014.4 |
| 20260510101930 | 17 | 11 | 24.1 | 41.8 | 0.00 | 0.00 | 0.00 | 50 | 1014.7 |
| 20260510101431 | 17 | 23 | 29.0 | 35.4 | 0.00 | 0.00 | 0.00 | 52 | 1014.3 |
| 20260510101204 | 17 | 2 | 27.4 | 41.8 | 0.00 | 0.00 | 0.00 | 49 | 1014.5 |
| 20260510100655 | 18 | 0 | 24.1 | 41.8 | 0.00 | 0.00 | 0.00 | 50 | 1014.5 |
| 20260510095930 | 18 | 353 | 27.4 | 41.8 | 0.00 | 0.00 | 0.00 | 52 | 1014.4 |
| 20260510095430 | 17 | 3 | 25.7 | 37.0 | 0.00 | 0.00 | 0.00 | 51 | 1014.6 |
| 20260510094930 | 17 | 35 | 20.9 | 35.4 | 0.00 | 0.00 | 0.00 | 51 | 1014.6 |
| 20260510094430 | 17 | 1 | 30.6 | 40.2 | 0.00 | 0.00 | 0.00 | 51 | 1014.7 |
| 20260510093929 | 17 | 19 | 22.5 | 43.5 | 0.00 | 0.00 | 0.00 | 50 | 1014.7 |
| 20260510093430 | 17 | 14 | 29.0 | 43.5 | 0.00 | 0.00 | 0.00 | 50 | 1015.0 |
| 20260510092929 | 17 | 21 | 38.6 | 43.5 | 0.00 | 0.00 | 0.00 | 50 | 1015.0 |
| 20260510092428 | 17 | 14 | 24.1 | 43.5 | 0.00 | 0.00 | 0.00 | 51 | 1014.9 |
| 20260510091929 | 17 | 356 | 25.7 | 41.8 | 0.00 | 0.00 | 0.00 | 51 | 1015.0 |
| 20260510091427 | 17 | 2 | 25.7 | 43.5 | 0.00 | 0.00 | 0.00 | 50 | 1015.0 |
| 20260510091418 | 17 | 7 | 35.4 | 45.1 | 0.00 | 0.00 | 0.00 | 50 | 1014.8 |
| 20260510090426 | 17 | 23 | 22.5 | 45.1 | 0.00 | 0.00 | 0.00 | 46 | 1014.9 |
| 20260510085925 | 17 | 355 | 25.7 | 40.2 | 0.00 | 0.00 | 0.00 | 49 | 1014.8 |
| 20260510085424 | 17 | 9 | 19.3 | 41.8 | 0.00 | 0.00 | 0.00 | 54 | 1014.9 |
| 20260510084926 | 17 | 2 | 22.5 | 41.8 | 0.00 | 0.00 | 0.00 | 58 | 1015.0 |
| 20260510084425 | 17 | 8 | 30.6 | 37.0 | 0.00 | 0.00 | 0.00 | 58 | 1015.1 |
| 20260510083924 | 17 | 358 | 30.6 | 37.0 | 0.00 | 0.00 | 0.00 | 57 | 1015.1 |
| 20260510083423 | 17 | 357 | 22.5 | 35.4 | 0.00 | 0.00 | 0.00 | 57 | 1015.0 |
| 20260510082924 | 17 | 11 | 24.1 | 35.4 | 0.00 | 0.00 | 0.00 | 58 | 1015.2 |
| 20260510082422 | 17 | 4 | 27.4 | 37.0 | 0.00 | 0.00 | 0.00 | 58 | 1015.3 |
| 20260510081921 | 17 | 11 | 37.0 | 37.0 | 0.00 | 0.00 | 0.00 | 59 | 1015.2 |
| 20260510081421 | 17 | 32 | 20.9 | 41.8 | 0.00 | 0.00 | 0.00 | 59 | 1015.4 |
| 20260510080919 | 16 | 356 | 32.2 | 41.8 | 0.00 | 0.00 | 0.00 | 59 | 1015.3 |
| 20260510080651 | 17 | 5 | 20.9 | 40.2 | 0.00 | 0.00 | 0.00 | 58 | 1015.3 |
| 20260510075918 | 17 | 16 | 29.0 | 40.2 | 0.00 | 0.00 | 0.00 | 59 | 1015.3 |
| 20260510075420 | 16 | 22 | 19.3 | 35.4 | 0.00 | 0.00 | 0.00 | 60 | 1015.3 |
| 20260510074917 | 16 | 13 | 22.5 | 33.8 | 0.00 | 0.00 | 0.00 | 61 | 1015.5 |
| 20260510074653 | 15 | 10 | 24.1 | 35.4 | 0.00 | 0.00 | 0.00 | 64 | 1015.6 |
| 20260510073919 | 14 | 14 | 30.6 | 37.0 | 0.00 | 0.00 | 0.00 | 67 | 1015.5 |
| 20260510073416 | 14 | 3 | 19.3 | 41.8 | 0.00 | 0.00 | 0.00 | 69 | 1015.5 |
| 20260510072916 | 13 | 0 | 20.9 | 41.8 | 0.00 | 0.00 | 0.00 | 70 | 1015.4 |
| 20260510072415 | 13 | 21 | 20.9 | 32.2 | 0.00 | 0.00 | 0.00 | 72 | 1015.4 |
| 20260510072149 | 13 | 3 | 20.9 | 37.0 | 0.00 | 0.00 | 0.00 | 72 | 1015.6 |
| 20260510071413 | 13 | 8 | 20.9 | 37.0 | 0.00 | 0.00 | 0.00 | 72 | 1015.5 |
| 20260510070915 | 13 | 4 | 25.7 | 37.0 | 0.00 | 0.00 | 0.00 | 73 | 1015.5 |
| 20260510070412 | 13 | 4 | 24.1 | 32.2 | 0.00 | 0.00 | 0.00 | 75 | 1015.4 |
| 20260510070146 | 12 | 21 | 22.5 | 32.2 | 0.00 | 0.00 | 0.00 | 75 | 1015.5 |
| 20260510065409 | 12 | 16 | 20.9 | 32.2 | 0.00 | 0.00 | 0.00 | 75 | 1015.5 |
| 20260510065143 | 12 | 8 | 22.5 | 30.6 | 0.00 | 0.00 | 0.00 | 76 | 1015.5 |
| 20260510064409 | 12 | 2 | 20.9 | 30.6 | 0.00 | 0.00 | 0.00 | 76 | 1015.3 |
| 20260510063908 | 12 | 1 | 17.7 | 30.6 | 0.00 | 0.00 | 0.00 | 76 | 1015.6 |
| 20260510063410 | 12 | 11 | 25.7 | 33.8 | 0.00 | 0.00 | 0.00 | 78 | 1015.7 |
| 20260510062908 | 12 | 19 | 22.5 | 33.8 | 0.00 | 0.00 | 0.00 | 78 | 1015.5 |
| 20260510062407 | 12 | 11 | 19.3 | 30.6 | 0.00 | 0.00 | 0.00 | 79 | 1015.7 |
| 20260510061907 | 11 | 28 | 25.7 | 30.6 | 0.00 | 0.00 | 0.00 | 79 | 1015.6 |
| 20260510061620 | 11 | 30 | 27.4 | 29.0 | 0.00 | 0.00 | 0.00 | 79 | 1015.6 |
| 20260510060405 | 11 | 16 | 19.3 | 29.0 | 0.00 | 0.00 | 0.00 | 81 | 1015.6 |
| 20260510055905 | 11 | 358 | 16.1 | 29.0 | 0.00 | 0.00 | 0.00 | 81 | 1015.5 |
| 20260510055404 | 11 | 6 | 17.7 | 27.4 | 0.00 | 0.00 | 0.00 | 82 | 1015.6 |
| 20260510055133 | 11 | 0 | 16.1 | 27.4 | 0.00 | 0.00 | 0.00 | 82 | 1015.7 |
| 20260510054402 | 11 | 15 | 17.7 | 27.4 | 0.00 | 0.00 | 0.00 | 83 | 1015.5 |
| 20260510053903 | 11 | 33 | 17.7 | 25.7 | 0.00 | 0.00 | 0.00 | 83 | 1015.6 |
| 20260510053635 | 11 | 9 | 16.1 | 25.7 | 0.00 | 0.00 | 0.00 | 83 | 1015.7 |
| 20260510052903 | 11 | 12 | 22.5 | 27.4 | 0.00 | 0.00 | 0.00 | 84 | 1015.5 |
| 20260510052401 | 11 | 18 | 17.7 | 30.6 | 0.00 | 0.00 | 0.00 | 84 | 1015.4 |
| 20260510052354 | 10 | 7 | 25.7 | 30.6 | 0.00 | 0.00 | 0.00 | 85 | 1015.3 |
| 20260510051401 | 10 | 349 | 19.3 | 27.4 | 0.00 | 0.00 | 0.00 | 86 | 1015.5 |
| 20260510050901 | 10 | 11 | 14.5 | 27.4 | 0.00 | 0.00 | 0.00 | 87 | 1015.4 |
| 20260510050359 | 10 | 349 | 20.9 | 22.5 | 0.00 | 0.00 | 0.00 | 88 | 1015.3 |
| 20260510045858 | 10 | 356 | 19.3 | 22.5 | 0.00 | 0.00 | 0.00 | 88 | 1015.4 |
| 20260510045358 | 10 | 355 | 16.1 | 25.7 | 0.00 | 0.00 | 0.00 | 89 | 1015.3 |
| 20260510044859 | 10 | 359 | 17.7 | 25.7 | 0.00 | 0.00 | 0.00 | 89 | 1015.4 |
| 20260510044358 | 10 | 6 | 19.3 | 22.5 | 0.00 | 0.00 | 0.00 | 89 | 1015.5 |
| 20260510043857 | 10 | 353 | 17.7 | 20.9 | 0.00 | 0.00 | 0.00 | 89 | 1015.5 |
| 20260510043357 | 10 | 354 | 16.1 | 20.9 | 0.00 | 0.00 | 0.00 | 89 | 1015.6 |
| 20260510042858 | 10 | 4 | 14.5 | 20.9 | 0.00 | 0.00 | 0.00 | 90 | 1015.5 |
| 20260510042354 | 10 | 2 | 17.7 | 20.9 | 0.00 | 0.00 | 0.00 | 89 | 1015.5 |
| 20260510041901 | 10 | 16 | 12.9 | 19.3 | 0.00 | 0.00 | 0.00 | 88 | 1015.5 |
| 20260510041854 | 10 | 356 | 12.9 | 19.3 | 0.00 | 0.00 | 0.00 | 88 | 1015.6 |
| 20260510040853 | 10 | 359 | 14.5 | 19.3 | 0.00 | 0.00 | 0.00 | 88 | 1015.6 |
| 20260510040352 | 10 | 358 | 12.9 | 19.3 | 0.00 | 0.00 | 0.00 | 88 | 1015.5 |
| 20260510035854 | 10 | 25 | 14.5 | 20.9 | 0.00 | 0.00 | 0.00 | 88 | 1015.4 |
| 20260510035353 | 10 | 32 | 16.1 | 20.9 | 0.00 | 0.00 | 0.00 | 88 | 1015.6 |
| 20260510034851 | 10 | 345 | 14.5 | 20.9 | 0.00 | 0.00 | 0.00 | 88 | 1015.5 |
| 20260510034403 | 10 | 351 | 17.7 | 24.1 | 0.00 | 0.00 | 0.00 | 88 | 1015.4 |
| 20260510034358 | 10 | 349 | 14.5 | 24.1 | 0.00 | 0.00 | 0.00 | 88 | 1015.5 |
| 20260510033350 | 10 | 355 | 17.7 | 24.1 | 0.00 | 0.00 | 0.00 | 87 | 1015.5 |
| 20260510032850 | 10 | 348 | 16.1 | 24.1 | 0.00 | 0.00 | 0.00 | 87 | 1015.3 |
| 20260510032349 | 10 | 350 | 14.5 | 20.9 | 0.00 | 0.00 | 0.00 | 87 | 1015.5 |
| 20260510032126 | 10 | 354 | 16.1 | 20.9 | 0.00 | 0.00 | 0.00 | 87 | 1015.5 |
| 20260510031349 | 10 | 1 | 11.3 | 20.9 | 0.00 | 0.00 | 0.00 | 87 | 1015.4 |
| 20260510030847 | 10 | 356 | 12.9 | 20.9 | 0.00 | 0.00 | 0.00 | 87 | 1015.6 |
| 20260510030359 | 10 | 1 | 16.1 | 20.9 | 0.00 | 0.00 | 0.00 | 87 | 1015.3 |
| 20260510030352 | 10 | 6 | 12.9 | 19.3 | 0.00 | 0.00 | 0.00 | 87 | 1015.5 |
| 20260510025345 | 10 | 0 | 16.1 | 22.5 | 0.00 | 0.00 | 0.00 | 87 | 1015.5 |
| 20260510024845 | 10 | 357 | 14.5 | 22.5 | 0.00 | 0.00 | 0.00 | 87 | 1015.5 |
| 20260510024344 | 10 | 359 | 14.5 | 20.9 | 0.00 | 0.00 | 0.00 | 87 | 1015.5 |
| 20260510023843 | 10 | 3 | 12.9 | 20.9 | 0.00 | 0.00 | 0.00 | 88 | 1015.5 |
| 20260510023343 | 10 | 353 | 17.7 | 20.9 | 0.00 | 0.00 | 0.00 | 88 | 1015.7 |
| 20260510023118 | 10 | 356 | 16.1 | 20.9 | 0.00 | 0.00 | 0.00 | 88 | 1015.5 |
| 20260510022341 | 10 | 13 | 11.3 | 20.9 | 0.00 | 0.00 | 0.00 | 89 | 1015.6 |
| 20260510021841 | 10 | 0 | 12.9 | 19.3 | 0.00 | 0.00 | 0.00 | 89 | 1015.5 |
| 20260510021342 | 10 | 1 | 14.5 | 19.3 | 0.00 | 0.00 | 0.00 | 88 | 1015.6 |
| 20260510021113 | 10 | 3 | 9.7 | 14.5 | 0.00 | 0.00 | 0.00 | 87 | 1015.6 |
| 20260510020338 | 10 | 1 | 12.9 | 14.5 | 0.00 | 0.00 | 0.00 | 87 | 1015.6 |
| 20260510015838 | 10 | 7 | 9.7 | 14.5 | 0.00 | 0.00 | 0.00 | 87 | 1015.7 |
| 20260510015337 | 10 | 2 | 8.0 | 14.5 | 0.00 | 0.00 | 0.00 | 87 | 1015.9 |
| 20260510014838 | 10 | 1 | 8.0 | 14.5 | 0.00 | 0.00 | 0.00 | 86 | 1016.0 |
| 20260510014337 | 10 | 18 | 8.0 | 14.5 | 0.00 | 0.00 | 0.00 | 86 | 1016.2 |
| 20260510013836 | 11 | 0 | 9.7 | 17.7 | 0.00 | 0.00 | 0.00 | 86 | 1016.1 |
| 20260510013336 | 11 | 0 | 11.3 | 17.7 | 0.00 | 0.00 | 0.00 | 87 | 1015.8 |
| 20260510012834 | 11 | 0 | 12.9 | 16.1 | 0.00 | 0.00 | 0.00 | 87 | 1015.7 |
| 20260510012609 | 11 | 8 | 14.5 | 17.7 | 0.00 | 0.00 | 0.00 | 87 | 1015.8 |
| 20260510011834 | 11 | 4 | 14.5 | 17.7 | 0.00 | 0.00 | 0.00 | 87 | 1015.6 |
| 20260510011602 | 11 | 5 | 9.7 | 20.9 | 0.00 | 0.00 | 0.00 | 87 | 1015.7 |
| 20260510010832 | 11 | 18 | 11.3 | 20.9 | 0.00 | 0.00 | 0.00 | 87 | 1015.7 |
| 20260510010332 | 11 | 1 | 14.5 | 20.9 | 0.00 | 0.00 | 0.00 | 87 | 1015.8 |
| 20260510005830 | 11 | 5 | 17.7 | 20.9 | 0.00 | 0.00 | 0.00 | 87 | 1015.8 |
| 20260510005332 | 11 | 353 | 17.7 | 17.7 | 0.00 | 0.00 | 0.00 | 87 | 1015.9 |
| 20260510004833 | 11 | 1 | 11.3 | 17.7 | 0.00 | 0.00 | 0.00 | 87 | 1015.9 |
| 20260510004332 | 11 | 4 | 12.9 | 17.7 | 0.00 | 0.00 | 0.00 | 87 | 1015.8 |
| 20260510003830 | 11 | 355 | 12.9 | 17.7 | 0.00 | 0.00 | 0.00 | 87 | 1015.8 |
| 20260510003329 | 11 | 2 | 11.3 | 17.7 | 0.00 | 0.00 | 0.00 | 86 | 1016.1 |
| 20260510002829 | 11 | 352 | 12.9 | 17.7 | 0.00 | 0.00 | 0.00 | 86 | 1016.1 |
| 20260510002330 | 11 | 353 | 16.1 | 17.7 | 0.00 | 0.00 | 0.00 | 85 | 1016.3 |
| 20260510002056 | 11 | 0 | 12.9 | 16.1 | 0.00 | 0.00 | 0.00 | 84 | 1016.3 |
| 20260510001327 | 11 | 1 | 9.7 | 17.7 | 0.00 | 0.00 | 0.00 | 84 | 1016.3 |
| 20260510000827 | 11 | 5 | 12.9 | 17.7 | 0.00 | 0.00 | 0.00 | 84 | 1016.4 |
| 20260510000326 | 11 | 354 | 14.5 | 17.7 | 0.00 | 0.00 | 0.00 | 84 | 1016.2 |
| 20260509235826 | 11 | 0 | 12.9 | 16.1 | 0.00 | 0.00 | 0.00 | 83 | 1016.2 |
| 20260509235327 | 11 | 17 | 12.9 | 20.9 | 0.00 | 0.00 | 0.00 | 83 | 1016.1 |
| 20260509234825 | 11 | 7 | 9.7 | 20.9 | 0.00 | 0.00 | 0.00 | 83 | 1016.3 |
| 20260509234324 | 11 | 359 | 12.9 | 19.3 | 0.00 | 0.00 | 0.00 | 82 | 1016.3 |
| 20260509234051 | 11 | 10 | 11.3 | 19.3 | 0.00 | 0.00 | 0.00 | 81 | 1016.2 |
| 20260509233323 | 11 | 7 | 11.3 | 20.9 | 0.00 | 0.00 | 0.00 | 81 | 1016.1 |
| 20260509232823 | 12 | 6 | 12.9 | 20.9 | 0.00 | 0.00 | 0.00 | 81 | 1016.2 |
| 20260509232322 | 12 | 13 | 11.3 | 19.3 | 0.00 | 0.00 | 0.00 | 80 | 1016.2 |
| 20260509232056 | 12 | 7 | 14.5 | 19.3 | 0.00 | 0.00 | 0.00 | 80 | 1016.3 |
| 20260509231321 | 12 | 358 | 16.1 | 22.5 | 0.00 | 0.00 | 0.00 | 79 | 1016.4 |
| 20260509230821 | 12 | 5 | 12.9 | 22.5 | 0.00 | 0.00 | 0.00 | 79 | 1016.3 |
| 20260509230321 | 12 | 17 | 12.9 | 17.7 | 0.00 | 0.00 | 0.00 | 79 | 1016.2 |
| 20260509225819 | 12 | 3 | 11.3 | 20.9 | 0.00 | 0.00 | 0.00 | 78 | 1016.3 |
| 20260509225318 | 12 | 19 | 19.3 | 24.1 | 0.00 | 0.00 | 0.00 | 78 | 1016.3 |
| 20260509224818 | 12 | 18 | 16.1 | 24.1 | 0.00 | 0.00 | 0.00 | 78 | 1016.2 |
| 20260509224319 | 12 | 9 | 12.9 | 24.1 | 0.00 | 0.00 | 0.00 | 78 | 1016.2 |
| 20260509223817 | 12 | 0 | 16.1 | 20.9 | 0.00 | 0.00 | 0.00 | 78 | 1016.3 |
| 20260509223318 | 12 | 5 | 12.9 | 19.3 | 0.00 | 0.00 | 0.00 | 77 | 1016.4 |
| 20260509222816 | 12 | 7 | 11.3 | 19.3 | 0.00 | 0.00 | 0.00 | 76 | 1016.4 |
| 20260509222316 | 12 | 17 | 12.9 | 19.3 | 0.00 | 0.00 | 0.00 | 76 | 1016.5 |
| 20260509221815 | 12 | 355 | 11.3 | 19.3 | 0.00 | 0.00 | 0.00 | 75 | 1016.2 |
| 20260509221315 | 12 | 7 | 11.3 | 20.9 | 0.00 | 0.00 | 0.00 | 75 | 1016.3 |
| 20260509220815 | 12 | 17 | 16.1 | 20.9 | 0.00 | 0.00 | 0.00 | 74 | 1016.3 |
| 20260509220313 | 12 | 26 | 12.9 | 20.9 | 0.00 | 0.00 | 0.00 | 74 | 1016.4 |
| 20260509215812 | 12 | 9 | 14.5 | 19.3 | 0.00 | 0.00 | 0.00 | 74 | 1016.5 |
| 20260509215547 | 12 | 11 | 12.9 | 19.3 | 0.00 | 0.00 | 0.00 | 73 | 1016.4 |
| 20260509214803 | 12 | 3 | 9.7 | 19.3 | 0.00 | 0.00 | 0.00 | 73 | 1016.4 |
| 20260509214303 | 12 | 0 | 14.5 | 17.7 | 0.00 | 0.00 | 0.00 | 72 | 1016.4 |
| 20260509213805 | 12 | 21 | 14.5 | 17.7 | 0.00 | 0.00 | 0.00 | 72 | 1016.3 |
| 20260509213302 | 12 | 17 | 12.9 | 14.5 | 0.00 | 0.00 | 0.00 | 72 | 1016.4 |
| 20260509212802 | 12 | 7 | 11.3 | 16.1 | 0.00 | 0.00 | 0.00 | 71 | 1016.3 |
| 20260509212306 | 12 | 11 | 11.3 | 17.7 | 0.00 | 0.00 | 0.00 | 70 | 1016.5 |
| 20260509211802 | 12 | 10 | 14.5 | 17.7 | 0.00 | 0.00 | 0.00 | 70 | 1016.3 |
| 20260509211303 | 13 | 10 | 12.9 | 17.7 | 0.00 | 0.00 | 0.00 | 69 | 1016.3 |
| 20260509210802 | 13 | 16 | 12.9 | 17.7 | 0.00 | 0.00 | 0.00 | 69 | 1016.3 |
| 20260509210302 | 13 | 24 | 14.5 | 16.1 | 0.00 | 0.00 | 0.00 | 69 | 1016.3 |
| 20260509205802 | 13 | 13 | 11.3 | 19.3 | 0.00 | 0.00 | 0.00 | 68 | 1016.3 |
| 20260509205306 | 13 | 5 | 12.9 | 19.3 | 0.00 | 0.00 | 0.00 | 68 | 1016.3 |
| 20260509205028 | 13 | 10 | 16.1 | 19.3 | 0.00 | 0.00 | 0.00 | 68 | 1016.4 |
| 20260509204303 | 13 | 24 | 12.9 | 19.3 | 0.00 | 0.00 | 0.00 | 68 | 1016.4 |
| 20260509203804 | 13 | 14 | 14.5 | 17.7 | 0.00 | 0.00 | 0.00 | 68 | 1016.4 |
| 20260509203303 | 13 | 9 | 12.9 | 17.7 | 0.00 | 0.00 | 0.00 | 67 | 1016.3 |
| 20260509202804 | 13 | 1 | 12.9 | 17.7 | 0.00 | 0.00 | 0.00 | 67 | 1016.4 |
| 20260509202307 | 14 | 10 | 11.3 | 16.1 | 0.00 | 0.00 | 0.00 | 65 | 1016.3 |
| 20260509201804 | 14 | 20 | 12.9 | 19.3 | 0.00 | 0.00 | 0.00 | 65 | 1016.1 |
| 20260509201303 | 14 | 6 | 12.9 | 20.9 | 0.00 | 0.00 | 0.00 | 65 | 1016.2 |
| 20260509200803 | 14 | 7 | 11.3 | 19.3 | 0.00 | 0.00 | 0.00 | 64 | 1016.3 |
| 20260509200301 | 14 | 21 | 9.7 | 19.3 | 0.00 | 0.00 | 0.00 | 64 | 1016.1 |
| 20260509195759 | 14 | 19 | 12.9 | 17.7 | 0.00 | 0.00 | 0.00 | 63 | 1016.0 |
| 20260509195259 | 15 | 5 | 11.3 | 19.3 | 0.00 | 0.00 | 0.00 | 62 | 1016.2 |
| 20260509194758 | 15 | 12 | 19.3 | 19.3 | 0.00 | 0.00 | 0.00 | 63 | 1016.2 |
| 20260509194531 | 15 | 1 | 14.5 | 16.1 | 0.00 | 0.00 | 0.00 | 62 | 1016.4 |
| 20260509193757 | 15 | 12 | 11.3 | 16.1 | 0.00 | 0.00 | 0.00 | 61 | 1016.2 |
| 20260509193523 | 15 | 4 | 11.3 | 17.7 | 0.00 | 0.00 | 0.00 | 60 | 1016.2 |
| 20260509193027 | 15 | 16 | 12.9 | 20.9 | 0.00 | 0.00 | 0.00 | 59 | 1016.2 |
| 20260509192257 | 15 | 11 | 12.9 | 20.9 | 0.00 | 0.00 | 0.00 | 59 | 1016.0 |
| 20260509191755 | 16 | 23 | 12.9 | 16.1 | 0.00 | 0.00 | 0.00 | 57 | 1016.3 |
| 20260509191257 | 16 | 26 | 9.7 | 16.1 | 0.00 | 0.00 | 0.00 | 57 | 1016.2 |
| 20260509191026 | 16 | 6 | 9.7 | 16.1 | 0.00 | 0.00 | 0.00 | 55 | 1016.1 |
| 20260509190253 | 17 | 23 | 11.3 | 16.1 | 0.00 | 0.00 | 0.00 | 54 | 1016.1 |
| 20260509185754 | 17 | 34 | 9.7 | 17.7 | 0.00 | 0.00 | 0.00 | 52 | 1016.1 |
| 20260509185252 | 18 | 12 | 12.9 | 17.7 | 0.00 | 0.00 | 0.00 | 51 | 1016.2 |
| 20260509185024 | 18 | 13 | 11.3 | 19.3 | 0.00 | 0.00 | 0.00 | 51 | 1016.0 |
| 20260509184254 | 18 | 12 | 11.3 | 19.3 | 0.00 | 0.00 | 0.00 | 50 | 1015.9 |